WetterOnline ( https://www.wetteronline.de )

Wetter aktuell Holzg������������nz

Aktuelles Wetter: Kempten (705m)

6-stündlich | Neueste Meldungen
Ortszeit Temperatur Wetter
Sa, 22.01. 19:00 0.1° C Sprühregen
Sa, 22.01. 13:00 0.4° C leichter Schneefall
Sa, 22.01. 7:00 -1.2° C bedeckt
Sa, 22.01. 1:00 -2.1° C bedeckt
Fr, 21.01. 19:00 -2.1° C bedeckt
Fr, 21.01. 13:00 -0.8° C bedeckt
Fr, 21.01. 7:00 -2.4° C bedeckt
Fr, 21.01. 1:00 -1.7° C bedeckt
Ortszeit Temperatur Wetter
So, 23.01. 0:30 0.1° C bedeckt
So, 23.01. 0:20 0.1° C bedeckt
So, 23.01. 0:10 -0.1° C bedeckt
So, 23.01. 0:00 0.1° C bedeckt
Sa, 22.01. 23:50 0.1° C bedeckt
Sa, 22.01. 23:40 -0.1° C bedeckt
Sa, 22.01. 23:30 -0.1° C bedeckt
Sa, 22.01. 23:00 -0.1° C bedeckt
Sa, 22.01. 22:30 0.0° C bedeckt
Sa, 22.01. 22:00 0.2° C bedeckt
Sa, 22.01. 21:30 0.2° C bedeckt
Ortszeit Relative Feuchte Sichtweite
Sa, 22.01. 19:00 90% 14 km
Sa, 22.01. 13:00 78% 26 km
Sa, 22.01. 7:00 67% 65 km
Sa, 22.01. 1:00 65% 55 km
Fr, 21.01. 19:00 66% 45 km
Fr, 21.01. 13:00 64% 40 km
Fr, 21.01. 7:00 80% 30 km
Fr, 21.01. 1:00 75% 45 km
Ortszeit Relative Feuchte Sichtweite
So, 23.01. 0:30 91% 20 km
So, 23.01. 0:20 91% -
So, 23.01. 0:10 92% -
So, 23.01. 0:00 91% 23 km
Sa, 22.01. 23:50 91% -
Sa, 22.01. 23:40 91% -
Sa, 22.01. 23:30 91% 22 km
Sa, 22.01. 23:00 92% 20 km
Sa, 22.01. 22:30 91% 23 km
Sa, 22.01. 22:00 90% 23 km
Sa, 22.01. 21:30 89% 26 km
Ortszeit Niederschlagsmenge Niederschlagsart
Sa, 22.01. 19:00 0.5 l/m2 in 12 Std. Schnee, Sprühregen
Sa, 22.01. 13:00 0.3 l/m2 in 6 Std. Schnee, Regen
Sa, 22.01. 7:00 0.1 l/m2 in 12 Std. Schnee
Sa, 22.01. 1:00 0.1 l/m2 in 6 Std. Schnee
Fr, 21.01. 19:00 0.1 l/m2 in 12 Std. -
Fr, 21.01. 13:00 0.1 l/m2 in 6 Std. Schnee
Fr, 21.01. 7:00 0.2 l/m2 in 12 Std. Schnee
Fr, 21.01. 1:00 0.2 l/m2 in 6 Std. Schnee
Ortszeit Niederschlagsmenge Niederschlagsart
So, 23.01. 0:30 0.0 l/m2 in 1 Std. -
So, 23.01. 0:20 keine Meldung -
So, 23.01. 0:10 keine Meldung -
So, 23.01. 0:00 0.0 l/m2 in 1 Std. -
Sa, 22.01. 23:50 keine Meldung -
Sa, 22.01. 23:40 keine Meldung -
Sa, 22.01. 23:30 0.0 l/m2 in 1 Std. -
Sa, 22.01. 23:00 0.1 l/m2 in 1 Std. Schnee
Sa, 22.01. 22:30 0.1 l/m2 in 1 Std. Schnee
Sa, 22.01. 22:00 0.1 l/m2 in 1 Std. Schnee, Sprühregen
Sa, 22.01. 21:30 0.0 l/m2 in 1 Std. -
Ortszeit Stärke Spitze Richtung
km/h Bft. km/h Grad Sektor
Sa, 22.01. 19:00 7 2 18 190° S
Sa, 22.01. 13:00 7 2 26 230° SW
Sa, 22.01. 7:00 9 2 26 220° SW
Sa, 22.01. 1:00 7 2 18 210° SW
Fr, 21.01. 19:00 7 2 22 200° S
Fr, 21.01. 13:00 4 1 18 320° NW
Fr, 21.01. 7:00 6 1 13 300° NW
Fr, 21.01. 1:00 7 2 29 290° W
Ortszeit Stärke Spitze Richtung
km/h Bft. km/h Grad Sektor
So, 23.01. 0:30 0 0 4 - -
So, 23.01. 0:20 2 1 - 300° NW
So, 23.01. 0:10 2 1 - 200° S
So, 23.01. 0:00 0 0 4 - -
Sa, 22.01. 23:50 0 0 - 260° W
Sa, 22.01. 23:40 0 0 - 130° SO
Sa, 22.01. 23:30 4 1 4 100° O
Sa, 22.01. 23:00 2 1 4 120° SO
Sa, 22.01. 22:30 4 1 4 140° SO
Sa, 22.01. 22:00 0 0 7 - -
Sa, 22.01. 21:30 4 1 7 180° S
Ortszeit Untergrenze Bedeckung Gattung
total tief tief mittel hoch
Sa, 22.01. 19:00 750 m 7/8 7/8 - - -
Sa, 22.01. 13:00 450 m 8/8 8/8 - - -
Sa, 22.01. 7:00 540 m 8/8 8/8 - - -
Sa, 22.01. 1:00 1050 m 8/8 8/8 - - -
Fr, 21.01. 19:00 720 m 8/8 8/8 - - -
Fr, 21.01. 13:00 690 m 8/8 8/8 - - -
Fr, 21.01. 7:00 540 m 8/8 8/8 - - -
Fr, 21.01. 1:00 720 m 8/8 8/8 - - -
Ortszeit Bedeckungsgrad in Achtel und Wolkenuntergrenze
So, 23.01. 0:30 8(810m)
So, 23.01. 0:20 8(810m)
So, 23.01. 0:10 2(510m) 8(810m)
So, 23.01. 0:00 7(510m) 8(780m)
Sa, 22.01. 23:50 7(510m) 8(780m)
Sa, 22.01. 23:40 8(480m) 8(780m)
Sa, 22.01. 23:30 7(510m) 8(750m)
Sa, 22.01. 23:00 4(540m) 7(690m) 8(810m)
Sa, 22.01. 22:30 4(390m) 8(570m)
Sa, 22.01. 22:00 8(570m) 8(570m)
Sa, 22.01. 21:30 8(600m)
Ortszeit Luftdruck NN (hPa) Tendenz (hPa in 3 Std.)
Sa, 22.01. 19:00 1036 + 1,0
Sa, 22.01. 13:00 1035 + 0,1
Sa, 22.01. 7:00 1035 + 0,4
Sa, 22.01. 1:00 1036 - 0,7
Fr, 21.01. 19:00 1036 + 0,9
Fr, 21.01. 13:00 1035 + 0,5
Fr, 21.01. 7:00 1033 + 0,7
Fr, 21.01. 1:00 1032 + 1,2
Ortszeit Luftdruck NN (hPa) Tendenz (hPa in 3 Std.)
So, 23.01. 0:30 1036 - 0,9
So, 23.01. 0:20 1036 keine Meldung
So, 23.01. 0:10 1036 keine Meldung
So, 23.01. 0:00 1036 - 0,7
Sa, 22.01. 23:50 1036 keine Meldung
Sa, 22.01. 23:40 1036 keine Meldung
Sa, 22.01. 23:30 1036 - 0,4
Sa, 22.01. 23:00 1036 - 0,2
Sa, 22.01. 22:30 1037 - 0,1
Sa, 22.01. 22:00 1037 + 0,3
Sa, 22.01. 21:30 1037 + 0,5
Ortszeit Schneehöhe (cm)
Sa, 22.01. 19:00 2
Sa, 22.01. 13:00 -
Sa, 22.01. 7:00 0
Sa, 22.01. 1:00 0
Fr, 21.01. 19:00 0
Fr, 21.01. 13:00 5
Fr, 21.01. 7:00 6
Fr, 21.01. 1:00 6
Ortszeit Schneehöhe (cm)
So, 23.01. 0:30 2
So, 23.01. 0:20 2
So, 23.01. 0:10 2
So, 23.01. 0:00 2
Sa, 22.01. 23:50 2
Sa, 22.01. 23:40 2
Sa, 22.01. 23:30 2
Sa, 22.01. 23:00 2
Sa, 22.01. 22:30 2
Sa, 22.01. 22:00 2
Sa, 22.01. 21:30 2
Link zu dieser Seite / Seite empfehlen

Das Wetter in ...